This demonstration page uses our WeatherBlox Daily Observations layout. Learn more.

Left ArrowRight Arrow

39.51506, -84.39828

Hourly Observations for May 20, 2016

Temp ( °F °C ) Dew Point ( °F °C ) Humidity (%) Winds ( mph kmh ) Pressure ( in mb ) Visibility ( mi km ) Precip ( " mm )
12:15 am 00:15 Clear 52 11 44 6.4 74 74 N N/A 30.18 1022 10 16 N/A
12:35 am 00:35 Clear 51 10.6 42 5.5 71 71 NNW 5 7 30.18 1022 10 16 N/A
12:55 am 00:55 Clear 51 10.7 42 5.8 72 72 N 5 7 30.18 1022 10 16 N/A
1:15 am 01:15 Clear 49 9.6 42 5.5 76 76 N 5 7 30.18 1022 10 16 N/A
1:35 am 01:35 Clear 52 11 43 5.9 71 71 NNE 3 6 30.18 1022 10 16 N/A
1:55 am 01:55 Clear 54 12 46 7.5 74 74 NNE 3 6 30.18 1022 10 16 N/A
2:15 am 02:15 Clear 52 10.9 43 5.9 72 72 N 3 6 30.18 1022 10 16 N/A
2:35 am 02:35 Clear 55 12.5 43 6.3 66 66 NE 6 9 30.15 1021 10 16 N/A
2:55 am 02:55 Clear 55 12.5 40 4.7 59 59 NE 7 11 30.15 1021 10 16 N/A
3:15 am 03:15 Clear 55 12.5 40 4.4 58 58 NNE 6 9 30.15 1021 10 16 N/A
3:35 am 03:35 Clear 55 12.5 40 4.5 58 58 NNE 3 6 30.15 1021 10 16 N/A
3:55 am 03:55 Clear 55 12.5 40 4.6 59 59 NNE 3 6 30.15 1021 10 16 N/A
4:15 am 04:15 Clear 55 12.5 40 4.5 58 58 N 5 7 30.15 1021 10 16 N/A
4:35 am 04:35 Clear 55 12.5 40 4.6 59 59 NNE 5 7 30.15 1021 10 16 N/A
4:55 am 04:55 Clear 55 12.5 38 3.6 55 55 NNE 7 11 30.15 1021 10 16 N/A
5:15 am 05:15 Clear 55 12.5 38 3.5 55 55 NE 6 9 30.18 1022 10 16 N/A
5:35 am 05:35 Clear 55 12.5 38 3.2 53 53 NNE 6 9 30.18 1022 10 16 N/A
5:55 am 05:55 Clear 55 12.5 38 3.3 54 54 NNE 6 9 30.18 1022 10 16 N/A
6:15 am 06:15 Clear 55 12.5 38 3.5 55 55 NNE 6 9 30.18 1022 10 16 N/A
6:35 am 06:35 Sunny 55 12.5 38 3.5 55 55 NNE 6 9 30.18 1022 10 16 N/A
6:55 am 06:55 Sunny 55 12.5 37 2.9 52 52 NNE 7 11 30.18 1022 10 16 N/A
7:15 am 07:15 Sunny 55 12.7 38 3.1 52 52 NE 6 9 30.18 1022 10 16 N/A
7:35 am 07:35 Sunny 57 13.8 38 3.6 50 50 NNE 7 11 30.18 1022 10 16 N/A
7:55 am 07:55 Sunny 57 13.8 38 3.4 50 50 NNE 5 7 30.18 1022 10 16 N/A
8:15 am 08:15 Sunny 57 14 37 3 48 48 NNE 3 6 30.18 1022 10 16 N/A
8:35 am 08:35 Sunny 60 15.3 41 4.8 50 50 N N/A 30.18 1022 10 16 N/A
8:55 am 08:55 Sunny 60 15.3 40 4.6 49 49 NNE 3 6 30.18 1022 10 16 N/A
9:15 am 09:15 Sunny 60 15.3 39 3.8 46 46 NNE 6 9 30.18 1022 10 16 N/A
9:35 am 09:35 Sunny 61 16 39 4.1 45 45 NNE 5 7 30.18 1022 10 16 N/A
9:55 am 09:55 Sunny 62 16.6 39 4.1 44 44 NNE 6 9 30.18 1022 10 16 N/A
10:15 am 10:15 Sunny 63 17 39 4.1 43 43 NNE 5 7 30.15 1021 10 16 N/A
10:35 am 10:35 Sunny 66 18.8 41 5 40 40 ENE 8 13 30.15 1021 10 16 N/A
10:55 am 10:55 Sunny 69 20.3 40 4.7 36 36 NE 7 11 30.12 1020 10 16 N/A
11:15 am 11:15 Sunny 69 20.8 41 5.2 36 36 ENE 8 13 30.12 1020 10 16 N/A
11:35 am 11:35 Sunny 69 20.8 42 5.7 37 37 NE 8 13 30.12 1020 10 16 N/A
11:55 am 11:55 Sunny 69 20.8 43 5.9 38 38 ENE 9 15 30.09 1019 10 16 N/A
12:15 pm 12:15 Sunny 69 20.8 43 6.1 39 39 NE 10 17 30.09 1019 10 16 N/A
12:35 pm 12:35 Sunny 69 20.8 42 5.4 37 37 NE 12 19 30.09 1019 10 16 N/A
12:55 pm 12:55 Sunny 72 22.3 44 6.9 37 37 ENE 10 17 30.09 1019 10 16 N/A
1:15 pm 13:15 Sunny 70 21.2 42 5.8 37 37 ENE 9 15 30.06 1018 10 16 N/A
1:35 pm 13:35 Sunny 70 21.3 42 5.7 36 36 ENE 12 19 30.06 1018 10 16 N/A
1:55 pm 13:55 Sunny 72 22.1 43 5.9 35 35 ENE 7 11 30.06 1018 10 16 N/A
2:15 pm 14:15 Partly Cloudy 69 20.8 43 6.1 39 39 ENE 10 17 30.06 1018 10 16 N/A
2:35 pm 14:35 Mostly Cloudy 69 20.8 46 7.8 43 43 E 10 17 30.06 1018 10 16 N/A
2:55 pm 14:55 Mostly Cloudy 69 20.8 46 8 44 44 E 9 15 30.06 1018 10 16 N/A
3:15 pm 15:15 Mostly Cloudy 69 20.8 47 8.4 45 45 ENE 7 11 30.06 1018 10 16 N/A
3:35 pm 15:35 Partly Cloudy 69 20.8 47 8.5 45 45 E 5 7 30.06 1018 10 16 N/A
3:55 pm 15:55 Mostly Cloudy 69 20.8 49 9.7 49 49 ENE 7 11 30.03 1017 10 16 N/A
4:15 pm 16:15 Cloudy 69 20.8 49 9.7 49 49 ENE 5 7 30.03 1017 10 16 N/A
4:35 pm 16:35 Cloudy 69 20.8 49 9.2 48 48 E 7 11 30.03 1017 10 16 N/A
4:55 pm 16:55 Cloudy with Light Rain 69 20.8 54 12 57 57 E 6 9 30.03 1017 10 16 N/A
5:15 pm 17:15 Cloudy with Light Rain 65 18.4 54 12.1 67 67 ESE 3 6 30.03 1017 10 16 N/A
5:35 pm 17:35 Cloudy with Light Rain 64 18 56 13.4 75 75 N N/A 30.03 1017 7 11 N/A
5:55 pm 17:55 Cloudy with Light Rain 64 17.5 56 13.3 77 77 SE 3 6 30.03 1017 10 16 N/A
6:15 pm 18:15 Cloudy with Light Rain 63 17 55 12.5 75 75 SE 5 7 30.03 1017 10 16 N/A
6:35 pm 18:35 Cloudy with Light Rain 62 16.6 55 12.6 77 77 N N/A 30.03 1017 7 11 N/A
6:55 pm 18:55 Cloudy with Rain 62 16.6 56 13.1 80 80 E 3 6 30.00 1016 7 11 N/A
7:15 pm 19:15 Cloudy with Light Rain 61 16 55 12.7 81 81 NE 6 9 30.00 1016 5 8 N/A
7:35 pm 19:35 Cloudy with Drizzle 61 16 55 12.9 82 82 ENE 7 11 29.97 1015 10 16 N/A
7:55 pm 19:55 Cloudy 60 15.4 54 12.2 81 81 E 10 17 29.97 1015 10 16 N/A
8:15 pm 20:15 Cloudy with Light Rain 60 15.3 54 12 81 81 ESE 7 11 29.97 1015 10 16 N/A
8:35 pm 20:35 Cloudy with Light Rain 60 15.3 54 12 81 81 WNW 6 9 30.03 1017 10 16 N/A
8:55 pm 20:55 Mostly Cloudy with Drizzle 60 15.3 54 12 81 81 WNW 5 7 30.03 1017 10 16 N/A
9:15 pm 21:15 Mostly Cloudy 60 15.3 54 12.2 82 82 N N/A 30.03 1017 10 16 N/A
9:35 pm 21:35 Cloudy 60 15.3 54 12.3 82 82 N 6 9 30.03 1017 10 16 N/A
9:55 pm 21:55 Cloudy 60 15.3 54 12.3 82 82 N N/A 30.03 1017 10 16 N/A
10:15 pm 22:15 Cloudy 60 15.3 54 12.3 82 82 N N/A 30.03 1017 10 16 N/A
10:35 pm 22:35 Cloudy 60 15.3 55 12.5 84 84 N N/A 30.03 1017 10 16 N/A
10:55 pm 22:55 Cloudy with Rain 60 15.3 55 12.5 84 84 N N/A 30.03 1017 7 11 N/A
11:15 pm 23:15 Cloudy with Light Rain 60 15.3 55 12.5 84 84 N N/A 30.03 1017 4 6 N/A
11:35 pm 23:35 Cloudy with Light Rain 60 15.3 55 12.5 84 84 N N/A 30.03 1017 4 6 N/A
11:55 pm 23:55 Cloudy with Drizzle 60 15.3 55 12.5 84 84 N 3 6 30.03 1017 5 8 N/A

Powered by AerisWeather